Weather History for CWCL - August, 2013

Change the Weather History Date:

Wednesday, August 21, 2013

  Actual Average Record
Temperature  
Mean Temperature 56 °F -  
Max Temperature 77 °F 71 °F 86 °F (2006)
Min Temperature 36 °F 44 °F 36 °F (2013)
Degree Days  
Heating Degree Days 8    
Growing Degree Days 6 (Base 50)    
Moisture  
Dew Point 32 °F    
Average Humidity 40    
Maximum Humidity 65    
Minimum Humidity 13    
Precipitation  
Precipitation 0.00 in - - ()
Sea Level Pressure  
Sea Level Pressure 30.15 in    
Wind  
Wind Speed 2 mph ()    
Max Wind Speed 9 mph    
Max Gust Speed -    
Visibility 9.0 miles    
Events      
Averages and records for this station are not official NWS values.
T = Trace of Precipitation, MM = Missing Value Source: Averaged Metar Reports

Daily Weather History Graph

Daily Weather History Graph

Search for Another Location

Airport or City:

Trip Planner

Search our weather history database for the weather conditions in past years. The results will help you decide how hot, cold, wet, or windy it might be!

Date:

Astronomy

Aug. 21, 2013 Rise Set
Actual Time 6:02 AM PDT 8:14 PM PDT
Civil Twilight 5:26 AM PDT 8:50 PM PDT
Nautical Twilight 4:41 AM PDT 9:35 PM PDT
Astronomical Twilight 3:48 AM PDT 10:26 PM PDT
Moon 8:10 PM PDT (8/21) 7:00 AM PDT (8/21)
Length of Visible Light 15h 23m
Length of Day
14h 11m
Full, 99% of the Moon is Illuminated
Aug 21
Full
Aug 28
Last Quarter
Sep 5
New
Sep 12
First Quarter
Sep 19
Full

Hourly Weather History & Observations

Time (PDT) Temp. Windchill Dew Point Humidity Pressure Visibility Wind Dir Wind Speed Gust Speed Precip Events Conditions
12:00 AM 42.8 °F - 28.4 °F 57% 30.20 in 9.0 mi Calm Calm - N/A   Clear
1:00 AM 41.0 °F - 28.4 °F 61% 30.21 in 9.0 mi Calm Calm - N/A   Clear
2:00 AM 41 °F - 28 °F 49% 30.21 in 9 mi Calm Calm - -  
2:00 AM 41.0 °F - 28.4 °F 61% 30.21 in 9.0 mi Calm Calm - N/A   Clear
3:00 AM 41.0 °F - 28.4 °F 61% 30.21 in 9.0 mi Calm Calm - N/A   Partly Cloudy
4:00 AM 41.0 °F 36.4 °F 28.4 °F 61% 30.22 in 9.0 mi NNW 6.9 mph - N/A   Scattered Clouds
5:00 AM 38 °F - 27 °F 54% 30.22 in 9 mi Calm Calm - -  
5:00 AM 39.2 °F - 26.6 °F 61% 30.22 in 9.0 mi Calm Calm - N/A   Clear
6:00 AM 37.4 °F - 26.6 °F 65% 30.22 in 9.0 mi SW 2.3 mph - N/A   Clear
7:00 AM 39.2 °F - 28.4 °F 65% 30.24 in 9.0 mi Calm Calm - N/A   Clear
8:00 AM 49 °F - 33 °F 43% 30.23 in 9 mi ESE 2.3 mph - -  
8:00 AM 50.0 °F - 33.8 °F 54% 30.23 in 9.0 mi Calm Calm - N/A   Clear
9:00 AM 55.4 °F - 33.8 °F 44% 30.23 in 9.0 mi East 3.5 mph - N/A   Clear
10:00 AM 59.0 °F - 35.6 °F 42% 30.22 in 9.0 mi ESE 2.3 mph - N/A   Partly Cloudy
11:00 AM 64 °F - 36 °F 24% 30.19 in 9 mi SE 5.8 mph - -  
11:00 AM 64.4 °F - 35.6 °F 34% 30.19 in 9.0 mi ESE 6.9 mph - N/A   Clear
12:00 PM 68.0 °F - 37.4 °F 33% 30.18 in 9.0 mi SSE 4.6 mph - N/A   Partly Cloudy
1:00 PM 71.6 °F - 37.4 °F 29% 30.16 in 9.0 mi South 6.9 mph - N/A   Partly Cloudy
2:00 PM 73.4 °F - 35.6 °F 25% 30.14 in 9.0 mi South 9.2 mph - N/A   Partly Cloudy
3:00 PM 75.2 °F - 33.8 °F 22% 30.12 in 9.0 mi South 4.6 mph - N/A   Clear
3:07 PM 75.2 °F - 33.8 °F 22% 30.12 in 9.0 mi NE 4.6 mph - N/A   Clear
3:18 PM 75.2 °F - 33.8 °F 22% 30.11 in 9.0 mi Calm Calm - N/A   Clear
4:00 PM 75.2 °F - 33.8 °F 22% 30.10 in 9.0 mi SE 3.5 mph - N/A   Clear
5:00 PM 75 °F - 34 °F 13% 30.08 in 9 mi SE 3.5 mph - -  
5:00 PM 75.2 °F - 33.8 °F 22% 30.08 in 9.0 mi SSE 5.8 mph - N/A   Clear
6:00 PM 75.2 °F - 33.8 °F 22% 30.07 in 9.0 mi South 6.9 mph - N/A   Clear
7:00 PM 71.6 °F - 33.8 °F 25% 30.07 in 9.0 mi South 3.5 mph - N/A   Clear
8:00 PM 62 °F - 33 °F 22% 30.06 in 9 mi SSW 4.6 mph - -  
8:00 PM 62.6 °F - 33.8 °F 34% 30.06 in 9.0 mi SSW 3.5 mph - N/A   Clear
9:00 PM 57.2 °F - 32.0 °F 38% 30.07 in 9.0 mi SE 2.3 mph - N/A   Clear
10:00 PM 55.4 °F - 32.0 °F 41% 30.07 in 9.0 mi SSW 3.5 mph - N/A   Clear
11:00 PM 52 °F - 32 °F 34% 30.06 in 9 mi South 3.5 mph - -  
11:00 PM 51.8 °F - 32.0 °F 47% 30.06 in 9.0 mi SSE 3.5 mph - N/A   Clear